Location: El Águila
(10.4167°N, 66.7167°W)
Time: 05:27:53
(UTC+00:00)

CZ-3C R/B - Pass Details

Date: 02 October 2022
Orbit: 314 x 32339 km, 19.8° (Epoch: 04 December)

Event Time Altitude Azimuth Distance (km) Brightness Sun altitude
Rises 23:22:12 0° 281° (WNW) 6,756 8.4 -16.9°
Reaches altitude 10° 23:29:33 10° 293° (WNW) 3,363 6.3 -18.7°
Maximum altitude 23:34:38 23° 346° (NNW) 1,257 3.3 -20.0°
Enters shadow 23:35:32 20° 11° (NNE) 1,172 2.9 -20.2°
